Date String (YYYY-MM-DD hh:mm:ss) UTC,Instrument flags,absolute air pressure of the measurement (hPa),sample flow rate (lpm),inlet stack bypass flow (lpm),air temperature of the measurement (°C),ambient temperature measured by the external sensor (°C),aerosol sample conditioner tube jacket temperature (°C),OPC LED temperature (°C),internal box temperature (°C),relative humidity of the measurement (%),span deviation,mass concentration of particles derived from Lorenz-Mie calculation of OPC scattering (μg/m³),mass concentration of particles derived from Lorenz-Mie calculation of OPC scattering (μg/m³),mass concentration of particles derived from Lorenz-Mie calculation of OPC scattering (μg/m³)
DateTimeUTC,F1_M11,P_M11,Q1_M11,Q2_M11,T1_M11,T2_M11,T3_M11,T4_M11,T5_M11,U1_M11,ZSPAN_M11,X0_M11,X2_M11,X1_M11
2024-04-14 17:00:00,SystemResetWarning,0828.7,5.00,000.00,025.5,025.1,000.0,033.6,027.5,014.8,0005.5,0016.20,0007.59,0006.25
2024-04-14 17:01:00,SystemResetWarning,0828.7,5.00,000.00,025.6,025.2,000.0,033.7,027.5,014.9,0005.5,0015.82,0007.47,0006.16
2024-04-14 17:02:00,SystemResetWarning,0828.6,4.99,000.00,025.5,024.1,000.0,033.8,026.8,014.5,0005.4,0016.32,0007.33,0006.02
2024-04-14 17:03:00,SystemResetWarning,0828.6,5.00,000.00,025.1,022.4,000.0,033.8,025.8,015.3,0005.3,0016.31,0007.07,0005.77
2024-04-14 17:04:00,SystemResetWarning,0828.6,5.01,000.00,024.9,022.3,000.0,033.8,025.8,015.5,0005.4,0015.76,0006.78,0005.52
2024-04-14 17:05:00,SystemResetWarning,0828.6,5.01,000.00,024.9,022.7,000.0,033.6,026.0,015.6,0005.4,0016.57,0006.48,0005.28
2024-04-14 17:06:00,SystemResetWarning,0828.6,5.00,000.00,024.9,023.1,000.0,033.5,026.3,015.4,0005.7,0017.26,0006.25,0005.05
2024-04-14 17:07:00,SystemResetWarning,0828.6,5.00,000.00,024.9,023.4,000.0,033.5,026.5,015.2,0005.6,0017.12,0005.93,0004.72
2024-04-14 17:08:00,SystemResetWarning,0828.6,5.00,000.00,025.0,023.7,000.0,033.4,026.7,015.6,0005.3,0017.19,0005.63,0004.43
2024-04-14 17:09:00,SystemResetWarning,0828.6,5.01,000.00,025.1,024.0,000.0,033.4,026.8,015.3,0005.3,0017.03,0005.36,0004.18
2024-04-14 17:10:00,SystemResetWarning,0828.7,5.00,000.00,025.1,024.3,000.0,033.4,027.0,014.4,0005.1,0016.54,0005.22,0003.99
2024-04-14 17:11:00,SystemResetWarning,0828.6,5.00,000.00,025.2,024.5,000.0,033.4,027.1,013.4,0001.1,0016.49,0005.11,0003.85
2024-04-14 17:12:00,SystemResetWarning,0828.6,5.00,000.00,025.3,024.6,000.0,033.5,027.1,013.7,0000.9,0016.37,0005.10,0003.78
2024-04-14 17:13:00,SystemResetWarning,0828.6,5.00,000.00,025.3,024.8,000.0,033.5,027.2,015.0,0000.0,0015.59,0005.04,0003.71
2024-04-14 17:14:00,SystemResetWarning,0828.7,5.00,000.00,025.4,025.0,000.0,033.5,027.3,014.3,0000.0,0017.13,0004.98,0003.63
2024-04-14 17:15:00,SystemResetWarning,0828.6,5.00,000.00,025.5,025.1,000.0,033.5,027.4,014.4,0000.0,0017.27,0004.89,0003.54
2024-04-14 17:16:00,SystemResetWarning,0828.6,4.99,000.00,025.5,024.6,000.0,033.6,027.0,014.0,0000.0,0016.65,0004.80,0003.41
2024-04-14 17:17:00,SystemResetWarning,0828.4,5.01,000.00,025.2,022.6,000.0,033.7,025.9,013.4,0000.0,0014.95,0004.60,0003.27
2024-04-14 17:18:00,SystemResetWarning,0828.4,5.02,000.00,024.8,022.0,000.0,033.7,025.5,013.6,0000.0,0014.59,0004.45,0003.16
2024-04-14 17:19:00,SystemResetWarning,0828.4,4.98,000.00,024.7,022.4,000.0,033.5,025.7,014.9,0000.0,0014.17,0004.33,0003.06
2024-04-14 17:20:00,SystemResetWarning,0828.4,4.99,000.00,024.7,022.7,000.0,033.4,026.0,013.9,0000.0,0014.48,0004.21,0002.89
2024-04-14 17:21:00,SystemResetWarning,0828.4,5.01,000.00,024.7,023.1,000.0,033.3,026.3,013.9,0000.0,0014.02,0004.15,0002.80
2024-04-14 17:22:00,SystemResetWarning,0828.4,5.00,000.00,024.8,023.4,000.0,033.3,026.5,014.8,0000.0,0013.67,0004.08,0002.77
2024-04-14 17:23:00,SystemResetWarning,0828.4,4.99,000.00,024.9,023.7,000.0,033.3,026.6,014.9,0000.0,0013.38,0004.04,0002.76
2024-04-14 17:24:00,SystemResetWarning,0828.4,5.00,000.00,024.9,023.9,000.0,033.3,026.8,014.5,0000.0,0013.14,0004.04,0002.74
2024-04-14 17:25:00,SystemResetWarning,0828.4,5.00,000.00,025.0,024.2,000.0,033.3,026.9,014.7,0000.0,0013.17,0004.01,0002.72
2024-04-14 17:26:00,SystemResetWarning,0828.4,5.00,000.00,025.1,024.4,000.0,033.3,027.0,014.4,0000.0,0012.36,0004.00,0002.71
2024-04-14 17:27:00,SystemResetWarning,0828.4,5.00,000.00,025.2,024.6,000.0,033.3,027.1,015.0,0000.0,0012.43,0004.01,0002.72
2024-04-14 17:28:00,SystemResetWarning,0828.4,5.00,000.00,025.2,024.8,000.0,033.4,027.1,015.4,0000.0,0012.44,0004.05,0002.73
2024-04-14 17:29:00,SystemResetWarning,0828.3,5.00,000.00,025.3,024.9,000.0,033.4,027.2,015.6,0000.0,0013.40,0004.19,0002.78
2024-04-14 17:30:00,SystemResetWarning,0828.3,4.99,000.00,025.3,024.3,000.0,033.5,026.8,014.9,0000.0,0013.90,0004.24,0002.80
2024-04-14 17:31:00,SystemResetWarning,0828.2,5.00,000.00,025.0,022.3,000.0,033.5,025.8,014.6,0000.0,0013.63,0004.32,0002.81
2024-04-14 17:32:00,SystemResetWarning,0828.2,5.02,000.00,024.6,022.0,000.0,033.5,025.5,014.4,0000.0,0013.51,0004.31,0002.84
2024-04-14 17:33:00,SystemResetWarning,0828.3,4.99,000.00,024.6,022.4,000.0,033.4,025.7,014.5,0000.0,0013.85,0004.33,0002.86
2024-04-14 17:34:00,SystemResetWarning,0828.2,5.00,000.00,024.6,022.8,000.0,033.3,026.0,014.5,0000.0,0014.91,0004.35,0002.86
2024-04-14 17:35:00,SystemResetWarning,0828.2,5.01,000.00,024.7,023.1,000.0,033.2,026.3,014.0,0000.0,0015.74,0004.33,0002.86
2024-04-14 17:36:00,SystemResetWarning,0828.2,5.00,000.00,024.7,023.4,000.0,033.2,026.5,014.0,0000.0,0015.79,0004.38,0002.88
2024-04-14 17:37:00,SystemResetWarning,0828.2,4.99,000.00,024.8,023.7,000.0,033.2,026.6,014.3,0000.0,0015.38,0004.42,0002.90
2024-04-14 17:38:00,SystemResetWarning,0828.2,5.00,000.00,024.9,024.0,000.0,033.2,026.7,014.7,0000.0,0015.25,0004.43,0002.91
2024-04-14 17:39:00,SystemResetWarning,0828.2,5.00,000.00,025.0,024.2,000.0,033.2,026.8,014.2,0000.0,0014.89,0004.43,0002.92
2024-04-14 17:40:00,SystemResetWarning,0828.2,5.00,000.00,025.0,024.4,000.0,033.2,026.9,014.1,0000.0,0015.15,0004.42,0002.92
2024-04-14 17:41:00,SystemResetWarning,0828.2,4.99,000.00,025.1,024.6,000.0,033.2,027.0,014.1,0000.0,0015.71,0004.44,0002.95
2024-04-14 17:42:00,SystemResetWarning,0828.2,5.00,000.00,025.2,024.8,000.0,033.3,027.1,013.9,0000.0,0016.34,0004.46,0002.98
2024-04-14 17:43:00,SystemResetWarning,0828.2,4.99,000.00,025.2,024.6,000.0,033.3,027.0,014.2,0000.0,0016.54,0004.49,0002.99
2024-04-14 17:44:00,SystemResetWarning,0828.1,4.99,000.00,025.0,022.9,000.0,033.4,026.0,015.2,0000.0,0017.26,0004.51,0003.02
2024-04-14 17:45:00,SystemResetWarning,0828.0,5.01,000.00,024.6,021.8,000.0,033.4,025.3,015.8,0000.0,0017.36,0004.53,0003.07
2024-04-14 17:46:00,SystemResetWarning,0828.1,5.01,000.00,024.5,022.2,000.0,033.3,025.5,016.3,0000.0,0016.84,0004.57,0003.11
2024-04-14 17:47:00,SystemResetWarning,0828.1,5.00,000.00,024.5,022.6,000.0,033.2,025.8,016.0,0000.0,0016.09,0004.62,0003.19
2024-04-14 17:48:00,SystemResetWarning,0828.2,5.01,000.00,024.6,022.9,000.0,033.1,026.1,016.1,0000.0,0016.17,0004.69,0003.28
2024-04-14 17:49:00,SystemResetWarning,0828.2,5.00,000.00,024.6,023.3,000.0,033.1,026.3,015.7,0000.0,0016.15,0004.72,0003.36
2024-04-14 17:50:00,SystemResetWarning,0828.2,5.00,000.00,024.7,023.6,000.0,033.1,026.5,015.3,0000.0,0016.95,0004.77,0003.43
2024-04-14 17:51:00,SystemResetWarning,0828.2,4.99,000.00,024.8,023.9,000.0,033.1,026.6,015.3,0000.0,0016.68,0004.80,0003.47
2024-04-14 17:52:00,SystemResetWarning,0828.1,5.00,000.00,024.9,024.1,000.0,033.1,026.7,015.0,0000.0,0017.37,0004.83,0003.50
2024-04-14 17:53:00,SystemResetWarning,0828.0,5.00,000.00,024.9,024.3,000.0,033.1,026.8,014.9,0000.0,0017.76,0004.82,0003.53
2024-04-14 17:54:00,SystemResetWarning,0828.1,5.00,000.00,025.0,024.5,000.0,033.1,027.0,015.1,0000.0,0017.73,0004.82,0003.57
2024-04-14 17:55:00,SystemResetWarning,0828.1,4.99,000.00,025.1,024.6,000.0,033.1,027.0,014.8,0000.0,0017.69,0004.85,0003.59
2024-04-14 17:56:00,SystemResetWarning,0828.0,5.00,000.00,025.2,024.7,000.0,033.2,027.0,014.4,0000.0,0017.37,0004.88,0003.58
2024-04-14 17:57:00,SystemResetWarning,0828.0,4.98,000.00,025.1,023.5,000.0,033.3,026.3,014.9,0000.0,0017.70,0004.90,0003.56
2024-04-14 17:58:00,SystemResetWarning,0827.9,5.01,000.00,024.7,021.9,000.0,033.3,025.3,015.1,0000.0,0018.62,0004.83,0003.50
2024-04-14 17:59:00,SystemResetWarning,0827.9,5.02,000.00,024.5,022.0,000.0,033.2,025.4,014.4,0000.0,0018.05,0004.70,0003.40
